Regional Weather Roundup
Issued by NWS Newport/Morehead, NC

Current Version | Previous Version | Text Only | Print | Product List | Glossary On
Versions: 1 2 3 4 5 6 7 8 9 10 11 12 13 14 15 16 17 18 19 20 21 22 23 24 25 26 27 28 29 30 31 32 33 34 35 36 37 38 39 40 41 42 43 44 45 46 47 48 49 50
000
ASUS42 KMHX 300125
RWRMHX
WEATHER ROUNDUP FOR EASTERN NORTH CAROLINA
NATIONAL WEATHER SERVICE NEWPORT/MOREHEAD CITY NC
900 PM EDT FRI MAY 29 2015

NOTE: "FAIR" INDICATES FEW OR NO CLOUDS BELOW 12,000 FEET
WITH NO SIGNIFICANT WEATHER AND/OR OBSTRUCTIONS TO VISIBILITY

NCZ015>017-031-032-045>047-102-103-300200-
NORTH COAST

CITY           SKY/WX    TMP DP  RH WIND       PRES   REMARKS
EDENTON        CLEAR     74  68  79 SE6       30.21S
ELIZABETH CITY CLEAR     74  69  85 SE10      30.22S
KITTY HAWK       N/A     72  69  90 SE6       30.21F
MANTEO         CLEAR     72  69  90 SE7       30.23R

$$

NCZ045>047-081-094-103-104-300200-
CENTRAL COAST

CITY           SKY/WX    TMP DP  RH WIND       PRES   REMARKS
FRISCO         CLEAR     75  66  73 SE8       30.22S
SWANQUARTER      N/A     75 N/A N/A SE7       30.18S

$$

NCZ095-097-098-100-101-300200-
SOUTHERN COAST

CITY           SKY/WX    TMP DP  RH WIND       PRES   REMARKS
BEAUFORT       PTCLDY    75  67  76 E5        30.21R
CEDAR ISLAND     N/A     75 N/A N/A E7G13     30.27R
JACKSONVILLE   PTCLDY    75  67  76 SE7       30.19S
PINEY ISLAND   PTCLDY   N/A N/A N/A SE7       30.21S
WILMINGTON     MOCLDY    76  67  73 E6        30.19S


$$

NCZ011>013-027>030-043-044-078>080-089-090>093-098-300200-
COASTAL PLAIN

CITY           SKY/WX    TMP DP  RH WIND       PRES   REMARKS
AHOSKIE        CLEAR     74  67  77 SE6       30.20R
CLINTON        CLEAR     75  67  77 CALM      30.19R
ELIZABETHTOWN  CLEAR     75  65  71 CALM      30.19R
GOLDSBORO      MOCLDY    78  66  66 SE2       30.17
GREENVILLE     PTCLDY    77  68  73 SE8       30.21R
HAVELOCK       PTCLDY    73  67  81 SE5       30.21S
KENANSVILLE    CLEAR     73  65  75 CALM      30.22R
KINSTON        CLEAR     75  66  73 SE5       30.20R
NEW BERN       CLEAR     74  68  81 S3        30.21S
RICHLANDS      CLEAR     73  64  73 CALM      30.21R
ROCKY MOUNT    MOCLDY    79  65  62 VRB6      30.19R
WASHINGTON     CLEAR     73  67  79 SE5       30.22R
WHITEVILLE     CLEAR     75  67  76 CALM      30.19R

$$

AMZ130-135-150-152-154-156-158-170-250-252-270-ANZ085-086-088-633-658-670-300200-
MARINE OBSERVATIONS

STATION/POSITION TIME  TEMP    WIND        PRES    WAVE   SWELL
                       AIR SEA DIR/SP/G            HT/PER HT/PER
                 (UTC) (F)     (DEG/KT/KT) (MB)    (FT/S) (FT/S)
CHESAPEAKE LIGHT 0100   69     140/ 19/ 19 1023.7
64 E VA BEACH    0050   69 69  110/  8/ 10 1023.5    3/ 9   3/ 9
DUCK             0100   70 59  120/ 12/ 13 1022.3
2 E DUCK         0011      67                N/A     3/ 9
OREGON INLET     0100   73 79   80/  7/  9 1023.4
13E OREGON INLT  0100      75                N/A     3/ 8
HATTERAS CG      0100   76 79  110/  6/  8 1022.9
DIAMOND BUOY     0050   76 80  120/ 10/ 14 1023.2    3/ 8   3/ 8
CAPE LOOKOUT     0100   75     110/ 11/ 12 1022.6
BEAUFORT LAB     0100   76 77  130/  9/ 12 1022.1
27 SE WRIGHTSVLE 0100      76  130/ 10/ 12   N/A
5 SE WRIGHTSVLE  0008   76 78  130/ 10/ 14 1022.0
225 S CAPE HAT   0050   75 75   90/ 14/ 17 1021.9    6/ 9   5/ 9
41 SE CHARLESTON 0050   78 79   90/ 12/ 14 1020.8    4/ 8   3/ 8

$$


USA.gov is the U.S. government's official web portal to all federal, state and local government web resources and services.